"Pseudo-MPEC" for P10LpaO

Created 2019 Jan 14 12:18:36 UT using Find_Orb

Click here for an explanation of pseudo-MPECs

 
 Astrometry: 
     P10LpaO  C2019 01 11]sKLm0g5o_3)g:uiyQMPlHeA\AstrometryW0$doa]@%/4iQ#^j6F51
     P10LpaO  C2019 01 11uZHwiY1S7u#R2C2v1!Mh:qY\Oc-Qm/L(2#\U6mredacted;/MBf%F51
     P10LpaO  C2019 01 11W=-OvCX`P/-95iK8K[NDUclick:0[osLyH?1fL:boLHy\0mqyrdKF51
     P10LpaO  C2019 01 11-)-[/`)OKoUe2%l4XNDKyDxcI+Vl)$Pja]%pD/EoXU5jhereZ[YlF51
     P10LpaO ^C2019 01 12.34063007 14 31.723+55 48 55.70   ~1CJI 20.94GVNEOCP568
     P10LpaO ^C2019 01 12.34160407 14 32.292+55 48 49.70   ~1CJI 21.12GVNEOCP568
     P10LpaO ^C2019 01 12.34255807 14 32.847+55 48 43.85   ~1CJI 20.98GVNEOCP568
     P10LpaO  C2019 01 13J!\q^:GO!_.q]=qfor,Put`VSR?WJ(2t.]vD.Z^Uc_nr0Qi[8?a3F51
     P10LpaO  C2019 01 13$2k7-SN)w\=5k[N`-9kPt)J\q];ek$D$p5e#=HUyejD?^aX*l,3hF51
     P10LpaO  C2019 01 13$CON2:QOb,((QM\Jex\ojh),Wg@]gexplanations.E=8sO,JYI1F51

Station data:
(568) Mauna Kea  (N19.826116 W155.472200)  US/Hawaii.
(F51) Pan-STARRS 1, Haleakala  (N20.707235 W156.255910)  US/Hawaii.
   Observers N. Primak, A. Schultz, S. Watters, J. Thiel, T. Goggia. Measurer
   PS1 Science Consortium. 1.8-m Ritchey-Chrétien + CCD.

Orbital elements:  P10LpaO
   Perihelion 2018 Dec 27.643481 +/- 0.0323 TT = 15:26:36 (JD 2458480.143481)
Epoch 2019 Jan 13.0 TT = JDT 2458496.5   Earth MOID: 0.0773   AutoNEOCP
M   7.05170207 +/- 0.051            (J2000 ecliptic)
n   0.43112485 +/- 0.00356          Peri.  135.48198 +/- 0.07
a   1.73540431 +/- 0.00955          Node   318.19054 +/- 0.030
e   0.4027521 +/- 0.00309           Incl.    5.16431 +/- 0.030
P   2.29/835.01d           H 25.3   G  0.15   U  9.0  
q 1.03646651 +/- 0.000352    Q 2.43434212 +/- 0.0189
From 10 observations 2019 Jan. 11-13 (46.7 hr); mean residual 0".18
Residuals in arcseconds: 
190111 F51  .23+  .24-    190112 568  .01-  .02-    190113 F51  .04+  .15-    
190111 F51  .01-  .02+    190112 568  .01-  .04-    190113 F51  .05-  .22-    
190111 F51  .03+  .17-    190112 568  .03-  .03-    
190111 F51  .22-  .47+    190113 F51  .04+  .41+    

Ephemerides (geocentric):
Date (UTC) HH   RA              Dec         delta   r     elong  mag " sig PA
---- -- -- --  -------------   -----------  ------ ------ -----  --- ---- ---
2019 01 14 12  07 35 28.661   +51 50 55.24  .08072 1.0539 149.5 21.2 1.35 174
2019 01 14 13  07 35 50.414   +51 46 14.97  .08076 1.0540 149.5 21.2 1.40 174
2019 01 14 14  07 36 12.075   +51 41 34.55  .08079 1.0540 149.6 21.2 1.45 173
2019 01 14 15  07 36 33.644   +51 36 54.01  .08083 1.0541 149.7 21.2 1.50 172
2019 01 14 16  07 36 55.122   +51 32 13.33  .08086 1.0542 149.8 21.2 1.55 172
2019 01 14 17  07 37 16.510   +51 27 32.52  .08090 1.0543 149.8 21.2 1.61 171
2019 01 14 18  07 37 37.807   +51 22 51.59  .08093 1.0544 149.9 21.2 1.66 170
2019 01 14 19  07 37 59.015   +51 18 10.54  .08097 1.0544 150.0 21.2 1.71 170
2019 01 14 20  07 38 20.133   +51 13 29.37  .08100 1.0545 150.0 21.2 1.77 169
2019 01 14 21  07 38 41.162   +51 08 48.09  .08104 1.0546 150.1 21.2 1.83 169
2019 01 14 22  07 39 02.102   +51 04 06.70  .08108 1.0547 150.2 21.2 1.89 168
2019 01 14 23  07 39 22.955   +50 59 25.21  .08111 1.0548 150.3 21.2 1.95 168
2019 01 15 00  07 39 43.719   +50 54 43.62  .08115 1.0549 150.3 21.2 2.01 168
2019 01 15 01  07 40 04.396   +50 50 01.93  .08119 1.0549 150.4 21.2 2.07 167
2019 01 15 02  07 40 24.986   +50 45 20.15  .08123 1.0550 150.5 21.2 2.13 167
2019 01 15 03  07 40 45.489   +50 40 38.28  .08126 1.0551 150.5 21.2 2.19 166
2019 01 15 04  07 41 05.906   +50 35 56.33  .08130 1.0552 150.6 21.2 2.26 166
2019 01 15 05  07 41 26.237   +50 31 14.29  .08134 1.0553 150.7 21.2 2.33 166
2019 01 15 06  07 41 46.483   +50 26 32.18  .08138 1.0554 150.8 21.2 2.39 165
2019 01 15 07  07 42 06.643   +50 21 50.00  .08142 1.0554 150.8 21.2 2.46 165
2019 01 15 08  07 42 26.719   +50 17 07.74  .08146 1.0555 150.9 21.2 2.53 165
2019 01 15 09  07 42 46.710   +50 12 25.43  .08150 1.0556 151.0 21.2 2.60 164
2019 01 15 10  07 43 06.617   +50 07 43.05  .08154 1.0557 151.0 21.2 2.67 164
2019 01 15 11  07 43 26.441   +50 03 00.61  .08158 1.0558 151.1 21.2 2.74 164
2019 01 15 12  07 43 46.182   +49 58 18.11  .08162 1.0559 151.2 21.2 2.82 163
2019 01 15 13  07 44 05.840   +49 53 35.57  .08166 1.0559 151.3 21.2 2.89 163
2019 01 15 14  07 44 25.415   +49 48 52.98  .08170 1.0560 151.3 21.2 2.97 163
2019 01 15 15  07 44 44.908   +49 44 10.35  .08174 1.0561 151.4 21.2 3.04 163
2019 01 15 16  07 45 04.320   +49 39 27.68  .08178 1.0562 151.5 21.2 3.12 163
2019 01 15 17  07 45 23.650   +49 34 44.97  .08183 1.0563 151.5 21.2 3.20 162
2019 01 15 18  07 45 42.899   +49 30 02.23  .08187 1.0564 151.6 21.2 3.28 162
2019 01 15 19  07 46 02.068   +49 25 19.46  .08191 1.0564 151.7 21.2 3.36 162
2019 01 15 20  07 46 21.156   +49 20 36.67  .08195 1.0565 151.8 21.2 3.44 162
2019 01 15 21  07 46 40.165   +49 15 53.85  .08200 1.0566 151.8 21.2 3.52 162
2019 01 15 22  07 46 59.094   +49 11 11.02  .08204 1.0567 151.9 21.2 3.61 161
2019 01 15 23  07 47 17.944   +49 06 28.17  .08208 1.0568 152.0 21.2 3.69 161
2019 01 16 00  07 47 36.716   +49 01 45.32  .08213 1.0569 152.0 21.2 3.78 161
2019 01 16 01  07 47 55.409   +48 57 02.45  .08217 1.0570 152.1 21.2 3.86 161
2019 01 16 02  07 48 14.023   +48 52 19.58  .08221 1.0571 152.2 21.2 3.95 161
2019 01 16 03  07 48 32.561   +48 47 36.71  .08226 1.0571 152.3 21.2 4.04 161
2019 01 16 04  07 48 51.021   +48 42 53.85  .08230 1.0572 152.3 21.2 4.13 160
2019 01 16 05  07 49 09.404   +48 38 10.99  .08235 1.0573 152.4 21.2 4.22 160
2019 01 16 06  07 49 27.710   +48 33 28.14  .08239 1.0574 152.5 21.2 4.31 160
2019 01 16 07  07 49 45.940   +48 28 45.30  .08244 1.0575 152.5 21.1 4.40 160
2019 01 16 08  07 50 04.095   +48 24 02.48  .08249 1.0576 152.6 21.1 4.49 160
2019 01 16 09  07 50 22.174   +48 19 19.69  .08253 1.0577 152.7 21.1 4.59 160
2019 01 16 10  07 50 40.177   +48 14 36.91  .08258 1.0578 152.8 21.1 4.68 160
2019 01 16 11  07 50 58.106   +48 09 54.16  .08263 1.0578 152.8 21.1 4.78 160